EDT,Max TemperatureF,Mean TemperatureF,Min TemperatureF,Max Dew PointF,MeanDew PointF,Min DewpointF,Max Humidity, Mean Humidity, Min Humidity, Max Sea Level PressureIn, Mean Sea Level PressureIn, Min Sea Level PressureIn, Max VisibilityMiles, Mean VisibilityMiles, Min VisibilityMiles, Max Wind SpeedMPH, Mean Wind SpeedMPH, Max Gust SpeedMPH,PrecipitationIn, CloudCover, Events, WindDirDegrees
2013-3-1,44,39,34,31,29,25,82,67,53,29.78,29.69,29.60,10,10,9,15,8,21,0.00,5,,317
2013-3-2,39,36,30,27,25,23,82,66,57,29.78,29.75,29.70,10,9,4,15,9,22,0.00,7,Rain-Snow,319
2013-3-3,39,34,28,22,19,16,67,58,48,29.77,29.72,29.66,10,10,9,18,12,23,0.00,5,Snow,321
2013-3-4,39,33,27,21,19,15,69,57,45,29.90,29.81,29.77,10,10,10,20,14,32,0.00,2,,312
2013-3-5,48,39,30,26,24,20,67,53,39,30.02,29.98,29.92,10,10,10,17,10,25,0.00,1,,3
2013-3-6,42,40,37,36,31,26,87,69,57,29.97,29.90,29.86,10,9,3,26,13,48,0.01,8,Rain,54
2013-3-7,39,36,33,34,31,25,96,82,62,30.08,30.03,29.92,10,5,2,20,13,31,0.21,8,Rain-Snow,355
2013-3-8,42,37,32,34,31,27,100,90,58,30.19,30.05,30.01,10,3,0,12,7,17,0.60,7,Fog-Snow,341
2013-3-9,55,44,34,27,23,15,67,48,22,30.31,30.24,30.18,10,10,10,13,7,18,0.00,0,,344
2013-3-10,48,39,30,36,32,23,89,75,59,30.39,30.34,30.30,10,10,10,10,3,,0.00,0,,179
2013-3-11,55,46,39,48,42,35,94,83,69,30.32,30.19,30.09,10,9,5,13,6,23,0.00,6,,185
2013-3-12,57,50,43,54,49,36,100,89,71,30.09,29.82,29.66,10,6,2,23,12,38,0.98,7,Rain,182
2013-3-13,51,44,37,35,29,24,79,59,38,29.89,29.85,29.78,10,10,10,18,7,28,0.00,1,,293
2013-3-14,41,34,28,25,13,7,64,42,28,29.96,29.90,29.85,10,10,9,24,16,37,0.00,4,Snow,301
2013-3-15,48,39,30,30,19,11,60,47,39,29.98,29.86,29.71,10,10,10,17,10,25,0.00,4,,282
2013-3-16,39,36,33,31,28,19,92,78,50,29.91,29.82,29.78,10,5,1,10,5,18,0.08,7,Snow,7
2013-3-17,37,32,28,29,18,10,85,55,38,30.31,30.12,29.92,10,10,10,14,8,24,0.00,0,,320
2013-3-18,35,30,27,32,20,6,100,67,39,30.41,30.25,30.02,10,6,0,13,7,20,0.60,5,Fog-Rain-Snow,59
2013-3-19,45,39,34,36,33,27,100,84,65,29.98,29.77,29.70,10,6,2,15,9,28,0.36,6,Rain,1
2013-3-20,45,38,30,27,20,17,72,49,36,29.88,29.83,29.78,10,10,10,17,9,26,0.00,4,,279
2013-3-21,39,34,30,28,17,12,87,51,36,29.84,29.73,29.63,10,9,5,13,8,22,0.00,8,Snow,326
2013-3-22,41,34,28,24,18,13,64,51,41,29.88,29.79,29.73,10,10,10,16,9,26,0.00,4,,279
2013-3-23,46,40,33,23,20,18,59,47,38,29.94,29.87,29.82,10,10,10,20,12,31,0.00,3,,300
2013-3-24,46,38,30,28,22,18,65,51,37,29.94,29.83,29.71,10,10,10,13,7,20,0.00,0,,316
2013-3-25,42,39,37,36,30,24,93,71,51,29.70,29.55,29.47,10,8,4,16,6,31,0.09,7,Rain,41
2013-3-26,52,42,34,31,28,25,82,59,39,29.86,29.73,29.60,10,10,10,16,6,22,0.00,4,Rain,316
2013-3-27,52,43,35,34,26,22,71,54,33,29.97,29.90,29.86,10,10,10,20,9,30,0.00,2,Rain,304
2013-3-28,50,42,36,34,30,28,76,61,48,30.11,30.01,29.96,10,10,9,15,9,21,0.01,4,Rain,323
2013-3-29,54,45,37,30,28,26,70,52,37,30.14,30.11,30.05,10,10,10,18,8,24,0.00,3,,313
2013-3-30,57,46,34,32,25,17,79,48,23,30.17,30.11,30.06,10,10,10,12,3,18,0.00,1,,306
2013-3-31,55,44,35,46,36,25,100,72,40,30.12,29.92,29.68,10,8,2,18,5,30,0.12,4,Rain,149